Calgary / Springba, Alberta

7:04 AM MST on February 22, 2017 (GMT -0700)
Springbank

Weather History for CYBW - January, 2014

Change the Weather History Date:

Wednesday, January 8, 2014

  Actual Average Record
Temperature  
Mean Temperature 20 °F -  
Max Temperature 39 °F 26 °F 48 °F (2012)
Min Temperature 1 °F 7 °F -20 °F (1998)
Degree Days  
Heating Degree Days 45    
Moisture  
Dew Point 18 °F    
Average Humidity 71    
Maximum Humidity 93    
Minimum Humidity 47    
Precipitation  
Precipitation 0.00 in - - ()
Sea Level Pressure  
Sea Level Pressure 29.79 in    
Wind  
Wind Speed 8 mph ()    
Max Wind Speed 22 mph    
Max Gust Speed 21 mph    
Visibility 11.3 miles    
Events Fog    
Averages and records for this station are not official NWS values.
T = Trace of Precipitation, MM = Missing Value Source: Averaged Metar Reports

Daily Weather History Graph

Daily Weather History Graph

Search for Another Location

Airport or City:

Trip Planner

Search our weather history database for the weather conditions in past years. The results will help you decide how hot, cold, wet, or windy it might be!

Date:

Astronomy

Jan. 08, 2014 Rise Set
Actual Time 8:39 AM MST 4:49 PM MST
Civil Twilight 8:00 AM MST 5:28 PM MST
Nautical Twilight 7:18 AM MST 6:10 PM MST
Astronomical Twilight 6:38 AM MST 6:50 PM MST
Moon 12:06 PM MST (1/8) 1:24 AM MST (1/8)
Length of Visible Light 9h 28m
Length of Day
8h 10m
First Quarter, 56% of the Moon is Illuminated
Jan 8
First Quarter
Jan 15
Full
Jan 23
Last Quarter
Jan 30
New
Feb 6
First Quarter

Hourly Weather History & Observations

Time (MST) Temp. Windchill Dew Point Humidity Pressure Visibility Wind Dir Wind Speed Gust Speed Precip Events Conditions
5:00 AM 2 °F - -2 °F 77% 29.94 in 6 mi West 3.5 mph - -   Mist
5:00 AM 1.4 °F -6.2 °F -2.2 °F 85% 29.94 in 6.0 mi West 3.5 mph - N/A Fog Patches of Fog
5:22 AM 1.4 °F -8.3 °F -2.2 °F 85% 29.93 in 6.0 mi West 4.6 mph - N/A   Scattered Clouds
6:00 AM 8.6 °F 2.0 °F 5.0 °F 85% 29.90 in 6.0 mi WNW 3.5 mph - N/A   Partly Cloudy
7:00 AM 14.0 °F 2.9 °F 12.2 °F 93% 29.86 in 10.0 mi NNW 8.1 mph - N/A Fog Shallow Fog
7:33 AM 19.4 °F 11.5 °F 17.6 °F 93% 29.84 in 15.0 mi NNW 5.8 mph - N/A   Mostly Cloudy
8:00 AM 17.6 °F 12.3 °F 15.8 °F 93% 29.85 in 25.0 mi WNW 3.5 mph - N/A   Mostly Cloudy
8:56 AM 21.2 °F 10.1 °F 19.4 °F 93% 29.83 in 30.0 mi NW 10.4 mph - N/A   Mostly Cloudy
9:00 AM 21.2 °F 10.9 °F 19.4 °F 93% 29.84 in 30.0 mi NNW 9.2 mph - N/A   Mostly Cloudy
10:00 AM 28.4 °F 18.5 °F 23.0 °F 80% 29.81 in 30.0 mi NW 11.5 mph 18.4 mph N/A   Mostly Cloudy
11:00 AM 33 °F - 24 °F 57% 29.79 in 28 mi West 17.3 mph - -   Mostly Cloudy
11:00 AM 33.8 °F 23.2 °F 23.0 °F 65% 29.79 in 30.0 mi West 17.3 mph - N/A   Mostly Cloudy
12:00 PM 33.8 °F 23.9 °F 23.0 °F 65% 29.78 in 30.0 mi West 15.0 mph - N/A   Mostly Cloudy
1:00 PM 37.4 °F 29.8 °F 23.0 °F 56% 29.74 in 30.0 mi WNW 11.5 mph - N/A   Mostly Cloudy
2:00 PM 37.4 °F 32.8 °F 23.0 °F 56% 29.74 in 30.0 mi NW 5.8 mph - N/A   Mostly Cloudy
3:00 PM 37.4 °F 27.8 °F 23.0 °F 56% 29.73 in 30.0 mi West 17.3 mph - N/A   Overcast
4:00 PM 37.4 °F 26.6 °F 23.0 °F 56% 29.75 in 30.0 mi West 21.9 mph - N/A   Mostly Cloudy
4:28 PM 35.6 °F 26.2 °F 23.0 °F 60% 29.75 in 30.0 mi WNW 15.0 mph 20.7 mph N/A   Mostly Cloudy
5:00 PM 36 °F - 23 °F 47% 29.76 in 28 mi WNW 16.1 mph - -   Mostly Cloudy
5:00 PM 37.4 °F 28.5 °F 23.0 °F 56% 29.75 in 30.0 mi WNW 15.0 mph - N/A   Mostly Cloudy
6:00 PM 35.6 °F 27.1 °F 23.0 °F 60% 29.73 in 15.0 mi West 12.7 mph - N/A   Mostly Cloudy
7:00 PM 33.8 °F 23.9 °F 23.0 °F 65% 29.70 in 15.0 mi West 15.0 mph - N/A   Mostly Cloudy
8:00 PM 35.6 °F 27.1 °F 21.2 °F 56% 29.68 in 15.0 mi WNW 12.7 mph - N/A   Mostly Cloudy
9:00 PM 28.4 °F 24.6 °F 21.2 °F 74% 29.68 in 15.0 mi West 3.5 mph - N/A   Mostly Cloudy
10:00 PM 30.2 °F - 19.4 °F 64% 29.63 in 15.0 mi West 2.3 mph - N/A   Mostly Cloudy